College Park, MD

5:38 AM EST on December 03, 2016 (GMT -0500)
College Park

Weather History for KCGS - February, 2014

Change the Weather History Date:

Saturday, February 8, 2014

  Actual Average Record
Temperature  
Mean Temperature 29 °F -  
Max Temperature 34 °F 39 °F 69 °F (2009)
Min Temperature 24 °F 23 °F -4 °F (1967)
Degree Days  
Heating Degree Days 36    
Moisture  
Dew Point 16 °F    
Average Humidity 58    
Maximum Humidity 82    
Minimum Humidity 37    
Precipitation  
Precipitation 0.00 in - - ()
Sea Level Pressure  
Sea Level Pressure 30.29 in    
Wind  
Wind Speed 0 mph (NNE)    
Max Wind Speed 5 mph    
Max Gust Speed -    
Visibility 10 miles    
Events      
Averages and records for this station are not official NWS values.
T = Trace of Precipitation, MM = Missing Value Source: NWS Daily Summary

Daily Weather History Graph

Daily Weather History Graph

Search for Another Location

Airport or City:

Trip Planner

Search our weather history database for the weather conditions in past years. The results will help you decide how hot, cold, wet, or windy it might be!

Date:

Astronomy

Feb. 08, 2014 Rise Set
Actual Time 7:07 AM EST 5:37 PM EST
Civil Twilight 6:39 AM EST 6:04 PM EST
Nautical Twilight 6:07 AM EST 6:36 PM EST
Astronomical Twilight 5:36 AM EST 7:07 PM EST
Moon 12:30 PM EST (2/8) 2:17 AM EST (2/8)
Length of Visible Light 11h 25m
Length of Day
10h 29m
Waxing Gibbous, 68% of the Moon is Illuminated
Feb 8
Waxing Gibbous
Feb 14
Full
Feb 22
Last Quarter
Mar 1
New
Mar 8
First Quarter

Hourly Weather History & Observations

Time (EST) Temp. Windchill Dew Point Humidity Pressure Visibility Wind Dir Wind Speed Gust Speed Precip Events Conditions
12:05 AM 28.2 °F - 22.3 °F 78% 30.34 in 10.0 mi Calm Calm - N/A   Clear
12:25 AM 28.4 °F - 22.5 °F 78% 30.34 in 10.0 mi Calm Calm - N/A   Clear
12:45 AM 28.4 °F - 22.3 °F 78% 30.34 in 10.0 mi Calm Calm - N/A   Clear
1:05 AM 28.9 °F - 22.3 °F 76% 30.35 in 10.0 mi Calm Calm - N/A   Clear
1:25 AM 28.9 °F - 23.4 °F 80% 30.34 in 10.0 mi Calm Calm - N/A   Clear
1:45 AM 29.7 °F - 21.7 °F 72% 30.36 in 10.0 mi Calm Calm - N/A   Clear
2:05 AM 29.7 °F - 22.3 °F 74% 30.36 in 10.0 mi Calm Calm - N/A   Clear
2:25 AM 29.5 °F - 22.3 °F 75% 30.35 in 10.0 mi Calm Calm - N/A   Clear
2:45 AM 29.5 °F - 21.7 °F 73% 30.35 in 10.0 mi Calm Calm - N/A   Clear
3:05 AM 30.2 °F - 17.8 °F 60% 30.35 in 10.0 mi Calm Calm - N/A   Clear
3:25 AM 30.6 °F - 16.7 °F 56% 30.35 in 10.0 mi Calm Calm - N/A   Clear
3:45 AM 30.4 °F - 15.4 °F 54% 30.34 in 10.0 mi Calm Calm - N/A   Clear
4:05 AM 30.2 °F - 16.2 °F 56% 30.34 in 10.0 mi Calm Calm - N/A   Clear
4:25 AM 30.2 °F - 15.6 °F 55% 30.33 in 10.0 mi Calm Calm - N/A   Clear
4:45 AM 30.0 °F - 16.5 °F 57% 30.34 in 10.0 mi Calm Calm - N/A   Clear
5:05 AM 30.0 °F - 15.1 °F 54% 30.33 in 10.0 mi Calm Calm - N/A   Clear
5:25 AM 30.0 °F 25.2 °F 13.5 °F 50% 30.33 in 10.0 mi NNE 4.6 mph - N/A   Clear
5:45 AM 29.3 °F 25.6 °F 13.6 °F 52% 30.34 in 10.0 mi North 3.5 mph - N/A   Clear
6:05 AM 29.3 °F - 13.1 °F 51% 30.33 in 10.0 mi Calm Calm - N/A   Clear
6:25 AM 28.9 °F - 14.7 °F 55% 30.34 in 10.0 mi Calm Calm - N/A   Clear
6:40 AM 28.6 °F - 15.6 °F 58% 30.34 in 10.0 mi Calm Calm - N/A   Clear
7:05 AM 29.1 °F - 12.9 °F 51% 30.33 in 10.0 mi Calm Calm - N/A   Clear
7:25 AM 29.1 °F - 13.5 °F 52% 30.34 in 10.0 mi Calm Calm - N/A   Scattered Clouds
7:45 AM 29.1 °F - 12.9 °F 51% 30.35 in 10.0 mi Calm Calm - N/A   Scattered Clouds
8:05 AM 29.7 °F - 12.0 °F 48% 30.35 in 10.0 mi Calm Calm - N/A   Scattered Clouds
8:25 AM 30.0 °F - 11.8 °F 47% 30.35 in 10.0 mi Calm Calm - N/A   Mostly Cloudy
8:45 AM 30.2 °F 25.4 °F 11.7 °F 46% 30.35 in 10.0 mi North 4.6 mph - N/A   Overcast
9:05 AM 30.7 °F - 11.7 °F 45% 30.35 in 10.0 mi Calm Calm - N/A   Overcast
9:25 AM 30.9 °F 26.2 °F 10.0 °F 42% 30.35 in 10.0 mi NNE 4.6 mph - N/A   Overcast
9:45 AM 30.9 °F - 10.8 °F 43% 30.33 in 10.0 mi Calm Calm - N/A   Overcast
10:00 AM 31.1 °F - 11.1 °F 43% 30.34 in 10.0 mi Calm Calm - N/A   Overcast
10:25 AM 31.6 °F - 10.9 °F 42% 30.35 in 10.0 mi Calm Calm - N/A   Overcast
10:45 AM 31.6 °F 28.3 °F 10.2 °F 41% 30.34 in 10.0 mi NNE 3.5 mph - N/A   Overcast
11:05 AM 31.8 °F - 10.4 °F 41% 30.34 in 10.0 mi Calm Calm - N/A   Overcast
11:25 AM 32.2 °F 28.9 °F 11.1 °F 42% 30.33 in 10.0 mi North 3.5 mph - N/A   Overcast
11:45 AM 32.2 °F - 10.6 °F 41% 30.31 in 10.0 mi Calm Calm - N/A   Overcast
12:05 PM 32.5 °F 29.3 °F 9.9 °F 39% 30.30 in 10.0 mi NNW 3.5 mph - N/A   Scattered Clouds
12:25 PM 32.9 °F - 9.1 °F 37% 30.30 in 10.0 mi Calm Calm - N/A   Mostly Cloudy
12:45 PM 32.9 °F - 10.2 °F 39% 30.30 in 10.0 mi Calm Calm - N/A   Overcast
1:05 PM 32.9 °F - 10.9 °F 40% 30.29 in 10.0 mi Calm Calm - N/A   Overcast
1:25 PM 32.7 °F - 13.8 °F 46% 30.28 in 10.0 mi Calm Calm - N/A   Overcast
1:45 PM 32.2 °F 27.7 °F 17.1 °F 54% 30.28 in 10.0 mi West 4.6 mph - N/A   Overcast
2:05 PM 32.9 °F - 16.5 °F 51% 30.27 in 10.0 mi Calm Calm - N/A   Overcast
2:25 PM 33.6 °F - 17.8 °F 52% 30.26 in 10.0 mi Calm Calm - N/A   Overcast
2:45 PM 33.1 °F 28.7 °F 17.4 °F 53% 30.25 in 10.0 mi NNE 4.6 mph - N/A   Mostly Cloudy
3:05 PM 33.8 °F - 17.4 °F 51% 30.23 in 10.0 mi Calm Calm - N/A   Overcast
3:25 PM 33.8 °F 30.8 °F 18.3 °F 53% 30.22 in 10.0 mi SSE 3.5 mph - N/A   Mostly Cloudy
3:45 PM 33.8 °F - 18.0 °F 52% 30.22 in 10.0 mi Calm Calm - N/A   Scattered Clouds
4:05 PM 34.2 °F 31.2 °F 18.0 °F 52% 30.22 in 10.0 mi East 3.5 mph - N/A   Scattered Clouds
4:25 PM 33.6 °F - 17.6 °F 52% 30.22 in 10.0 mi Calm Calm - N/A   Mostly Cloudy
4:45 PM 33.6 °F - 17.8 °F 52% - 10.0 mi Calm Calm - N/A   Mostly Cloudy
5:05 PM 33.1 °F 30.0 °F 18.0 °F 54% 30.21 in 10.0 mi East 3.5 mph - N/A   Overcast
5:25 PM 32.9 °F - 17.4 °F 53% 30.22 in 10.0 mi Calm Calm - N/A   Mostly Cloudy
5:45 PM 32.4 °F - 17.8 °F 55% 30.23 in 10.0 mi Calm Calm - N/A   Mostly Cloudy
6:05 PM 32.5 °F - 18.3 °F 56% 30.23 in 10.0 mi Calm Calm - N/A   Overcast
6:25 PM 32.2 °F - 18.0 °F 56% 30.22 in 10.0 mi Calm Calm - N/A   Overcast
6:45 PM 32.0 °F - 19.8 °F 61% 30.22 in 10.0 mi Calm Calm - N/A   Overcast
7:05 PM 31.6 °F - 19.6 °F 61% 30.22 in 10.0 mi Calm Calm - N/A   Scattered Clouds
7:25 PM 30.9 °F - 18.1 °F 59% 30.22 in 10.0 mi Calm Calm - N/A   Clear
7:45 PM 30.2 °F - 17.2 °F 59% 30.22 in 10.0 mi Calm Calm - N/A   Clear
8:05 PM 30.0 °F - 17.8 °F 60% 30.22 in 10.0 mi Calm Calm - N/A   Scattered Clouds
8:20 PM 29.5 °F - 18.9 °F 65% 30.22 in 10.0 mi Calm Calm - N/A   Scattered Clouds
8:45 PM 28.0 °F - 19.4 °F 70% 30.21 in 10.0 mi Calm Calm - N/A   Scattered Clouds
9:00 PM 28.0 °F - 19.4 °F 70% 30.20 in 10.0 mi Calm Calm - N/A   Scattered Clouds
9:25 PM 26.8 °F - 19.2 °F 73% 30.20 in 10.0 mi Calm Calm - N/A   Clear
9:40 PM 27.9 °F - 19.0 °F 69% 30.21 in 10.0 mi Calm Calm - N/A   Clear
10:05 PM 26.1 °F - 19.9 °F 78% 30.21 in 10.0 mi Calm Calm - N/A   Clear
10:25 PM 25.7 °F - 20.7 °F 81% 30.21 in 10.0 mi Calm Calm - N/A   Clear
10:45 PM 25.3 °F - 19.9 °F 80% 30.21 in 10.0 mi Calm Calm - N/A   Clear
11:05 PM 25.0 °F - 19.9 °F 81% 30.22 in 10.0 mi Calm Calm - N/A   Clear
11:25 PM 24.8 °F - 19.9 °F 82% 30.22 in 10.0 mi Calm Calm - N/A   Clear
11:45 PM 24.8 °F - 19.6 °F 81% 30.22 in 10.0 mi Calm Calm - N/A   Clear